Regional Weather Roundup
Issued by NWS

Home | Current Version | Previous Version | Text Only | Print | Product List | Glossary Off
Versions: 1 2 3 4 5 6 7 8 9 10 11 12 13 14 15 16 17 18 19 20 21 22 23 24 25 26 27 28 29 30 31 32 33 34 35 36 37 38 39 40 41 42 43 44 45 46 47 48 49 50

324
ASUS43 KLSX 172257
RWRMO

WEATHER SUMMARY FOR MISSOURI
NATIONAL WEATHER SERVICE SPRINGFIELD MO
500 PM CST SUN DEC 17 2017

NOTE: "FAIR" INDICATES FEW OR NO CLOUDS BELOW 12,000 FEET WITH NO
       SIGNIFICANT WEATHER AND/OR OBSTRUCTIONS TO VISIBILITY.
       CURRENT SKY AND/OR WEATHER CONDITIONS ARE NOT AVAILABLE FOR
       CHILLICOTHE AND FARMINGTON.

MOZ001>031-035>038-043-044-053-054-180000-
...NORTHERN AND WESTERN MISSOURI...

CITY           SKY/WX    TMP DP  RH WIND       PRES   REMARKS
KANSAS CTY INT CLOUDY    45  43  93 S5        29.98S
KANSAS C DTWN  CLOUDY    48  43  81 CALM      29.99S
LEE`S SUMMIT   CLOUDY    46  44  93 S8        29.99F
ST JOSEPH      CLOUDY    45  44  97 CALM      30.00R
CHILLICOTHE      N/A     45  44  97 CALM      30.00S

$$
MOZ066>068-077>081-088>096-101>105-180000-
...SOUTHWEST MISSOURI...

CITY           SKY/WX    TMP DP  RH WIND       PRES   REMARKS
SPRINGFIELD    CLOUDY    45  45 100 SW3       30.04R FOG
JOPLIN         CLOUDY    46  44  93 SW5       30.05R
BRANSON        FOG       45  45 100 CALM      30.05R VSB 3/4

$$
MOZ032>034-039>042-045>050-055>058-069>072-180000-
...CENTRAL MISSOURI...

CITY           SKY/WX    TMP DP  RH WIND       PRES   REMARKS
COLUMBIA       NOT AVBL
JEFFERSON CITY CLOUDY    47  43  86 SW3       30.04R
ROLLA          CLOUDY    47  43  86 SW7       30.04R
SEDALIA        CLOUDY    46  45  96 SW7       30.03S
WARRENSBURG    CLOUDY    43  43 100 S3        30.01S FOG

$$
MOZ051-052-059>065-180000-
...EAST CENTRAL MISSOURI...

CITY           SKY/WX    TMP DP  RH WIND       PRES   REMARKS
ST LOUIS INTL  CLOUDY    53  42  66 SW9       30.02R

$$
MOZ072>076-082>087-097>100-106>115-180000-
...SOUTH CENTRAL AND SOUTHEAST MISSOURI...

CITY           SKY/WX    TMP DP  RH WIND       PRES   REMARKS
CAPE GIRARDEAU CLOUDY    45  42  89 S5        30.09S
POPLAR BLUFF   CLOUDY    46  44  93 S5        30.08S

$$



USA.gov is the U.S. government's official web portal to all federal, state and local government web resources and services.